TimeEDT,TemperatureF,Dew PointF,Humidity,Sea Level PressureIn,VisibilityMPH,Wind Direction,Wind SpeedMPH,Gust SpeedMPH,PrecipitationIn,Events,Conditions,WindDirDegrees,DateUTC
12:58 AM,70.3,66.6,88,29.94,10.0,Variable,1.2,-,N/A,,Clear,0,2013-08-07 04:58:00
1:58 AM,70.7,67.1,88,29.95,10.0,South,2.3,-,N/A,,Scattered Clouds,180,2013-08-07 05:58:00
2:48 AM,69.8,68.0,94,29.96,10.0,ESE,3.5,-,N/A,,Mostly Cloudy,110,2013-08-07 06:48:00
2:58 AM,70.3,67.1,89,29.94,10.0,ESE,3.5,-,N/A,,Mostly Cloudy,110,2013-08-07 06:58:00
3:28 AM,71.6,68.0,88,29.95,10.0,SSE,4.6,-,N/A,,Scattered Clouds,150,2013-08-07 07:28:00
3:58 AM,70.5,67.1,89,29.94,10.0,SE,4.6,-,N/A,,Partly Cloudy,140,2013-08-07 07:58:00
4:58 AM,70.7,67.6,90,29.92,10.0,SSE,5.8,-,N/A,,Overcast,160,2013-08-07 08:58:00
5:58 AM,70.5,67.8,91,29.91,10.0,SSE,6.9,-,N/A,,Scattered Clouds,160,2013-08-07 09:58:00
6:08 AM,71.6,68.0,88,29.93,10.0,SSE,5.8,-,N/A,,Mostly Cloudy,160,2013-08-07 10:08:00
6:18 AM,69.8,68.0,94,29.93,10.0,South,4.6,-,N/A,,Mostly Cloudy,180,2013-08-07 10:18:00
6:28 AM,69.8,68.0,94,29.94,10.0,South,3.5,-,N/A,,Mostly Cloudy,180,2013-08-07 10:28:00
6:38 AM,69.8,68.0,94,29.94,10.0,South,4.6,-,N/A,,Mostly Cloudy,170,2013-08-07 10:38:00
6:58 AM,70.3,68.2,93,29.92,7.0,SSE,6.9,-,N/A,,Mostly Cloudy,150,2013-08-07 10:58:00
7:18 AM,69.8,68.0,94,29.92,7.0,SSE,5.8,-,N/A,,Mostly Cloudy,150,2013-08-07 11:18:00
7:38 AM,71.6,68.0,88,29.94,10.0,South,4.6,-,N/A,,Overcast,170,2013-08-07 11:38:00
7:48 AM,71.6,69.8,94,29.94,10.0,SSE,5.8,-,N/A,,Overcast,160,2013-08-07 11:48:00
7:58 AM,71.4,68.9,92,29.94,10.0,SSE,4.6,-,N/A,,Overcast,160,2013-08-07 11:58:00
8:21 AM,71.6,69.8,94,29.94,10.0,South,5.8,-,N/A,,Overcast,170,2013-08-07 12:21:00
8:38 AM,73.4,69.8,88,29.94,4.0,South,4.6,-,N/A,,Overcast,180,2013-08-07 12:38:00
8:58 AM,73.4,70.9,92,29.94,4.0,SSW,6.9,-,N/A,,Overcast,210,2013-08-07 12:58:00
9:58 AM,76.8,72.3,86,29.96,10.0,SSW,6.9,-,N/A,,Mostly Cloudy,200,2013-08-07 13:58:00
10:18 AM,77.0,71.6,83,29.96,10.0,SW,10.4,-,N/A,,Mostly Cloudy,220,2013-08-07 14:18:00
10:28 AM,77.0,71.6,83,29.96,10.0,SW,8.1,-,N/A,,Mostly Cloudy,220,2013-08-07 14:28:00
10:58 AM,77.5,72.5,84,29.94,10.0,WSW,9.2,-,N/A,,Mostly Cloudy,240,2013-08-07 14:58:00
11:58 AM,79.3,72.1,79,29.96,10.0,SSW,10.4,-,N/A,,Mostly Cloudy,210,2013-08-07 15:58:00
12:58 PM,79.9,71.4,75,29.94,10.0,WSW,5.8,-,N/A,,Overcast,250,2013-08-07 16:58:00
1:58 PM,80.6,71.1,73,29.93,10.0,SSW,8.1,-,N/A,,Overcast,210,2013-08-07 17:58:00
2:58 PM,81.7,71.2,70,29.92,10.0,SW,3.5,-,N/A,,Partly Cloudy,220,2013-08-07 18:58:00
3:58 PM,83.3,71.6,68,29.90,10.0,SSW,12.7,-,N/A,,Partly Cloudy,210,2013-08-07 19:58:00
4:58 PM,84.4,71.2,65,29.89,10.0,SW,9.2,-,N/A,,Partly Cloudy,220,2013-08-07 20:58:00
5:58 PM,83.5,71.6,67,29.89,10.0,SW,8.1,-,N/A,,Partly Cloudy,230,2013-08-07 21:58:00
6:58 PM,82.0,71.2,70,29.89,10.0,SSW,9.2,-,N/A,,Clear,210,2013-08-07 22:58:00
7:58 PM,80.8,70.5,71,29.90,10.0,WSW,5.8,-,N/A,,Partly Cloudy,240,2013-08-07 23:58:00
8:48 PM,78.8,69.8,74,29.91,10.0,SSW,2.3,-,N/A,,Partly Cloudy,210,2013-08-08 00:48:00
8:58 PM,78.4,70.3,76,29.89,10.0,SE,3.5,-,N/A,,Scattered Clouds,140,2013-08-08 00:58:00
9:58 PM,77.2,71.6,83,29.91,10.0,ENE,1.2,-,0.00,,Clear,70,2013-08-08 01:58:00
10:58 PM,76.5,72.3,87,29.93,10.0,South,4.6,-,N/A,,Clear,170,2013-08-08 02:58:00
11:58 PM,75.7,72.1,89,29.93,10.0,SE,2.3,-,N/A,,Clear,130,2013-08-08 03:58:00